Temperature
30 31 31 31 32 32 31 31 31 31 31 31 31 30 30 29 28 28 27 26 25 24 23 22 21 21 20 20 19 19 19 19 19 19 19 18 18 18 18 18 18 18 18 18
31 31 31 32 31 31 31 31 31 31 31 31 31 31 31 30 29 28 28 27 26 25 24 23 22 21 21 20 20 20 20 19 19 19 19 19 18 18 18 18 18 18 18 18
31 32 31 31 31 31 31 31 31 31 31 31 31 31 30 30 29 28 27 27 26 26 25 24 22 22 21 21 20 20 20 20 19 19 19 19 18 18 18 18 18 18 18 18
31 31 31 31 31 31 31 32 31 31 31 31 31 31 31 31 30 29 28 27 27 26 25 24 23 22 22 21 21 20 20 20 20 19 19 19 19 18 18 18 18 18 18 18
31 31 31 31 31 31 31 31 31 31 31 31 32 31 32 31 30 30 29 28 27 27 26 25 24 23 22 22 21 21 21 20 20 20 19 19 19 18 18 18 18 18 18 18
32 32 32 32 32 31 31 31 31 31 32 31 31 31 31 32 31 31 30 29 28 27 26 25 24 23 22 22 22 21 21 21 20 20 20 19 19 19 18 18 18 18 18 18
31 31 32 31 31 31 31 31 31 30 31 31 31 31 31 32 32 31 31 30 28 27 26 25 24 23 23 22 22 21 21 21 21 20 20 20 20 19 19 18 18 18 18 18
30 31 31 32 31 31 31 32 30 30 30 31 31 31 32 32 31 30 30 29 28 27 27 26 25 24 23 22 22 21 21 21 21 20 20 20 20 19 19 18 18 18 18 18
31 31 31 31 32 32 31 32 32 31 31 31 31 32 32 32 31 30 30 29 28 28 27 26 25 24 24 23 22 22 21 21 21 20 20 20 19 19 19 19 18 18 18 17
31 30 31 31 31 31 32 32 32 31 29 30 31 31 32 31 31 31 30 29 28 27 27 26 25 24 24 23 22 21 21 21 21 20 20 20 20 19 19 19 18 18 18 18
31 30 30 31 30 31 31 31 31 31 30 30 30 31 33 31 31 31 30 29 28 27 27 26 25 24 23 23 22 21 21 21 20 20 20 20 19 19 19 19 18 18 18 18
30 31 30 30 31 31 31 31 31 30 30 30 30 31 32 32 31 30 30 28 28 27 27 26 25 24 23 23 22 21 21 21 20 20 20 20 19 19 19 19 18 18 18 18
29 29 29 29 30 30 30 31 31 31 31 30 30 31 32 31 31 30 29 28 27 26 26 25 24 23 23 22 22 21 21 21 20 20 20 19 19 19 19 19 18 18 18 18
28 29 29 29 30 31 30 30 30 30 30 30 30 31 31 31 30 29 28 27 26 25 25 24 23 23 22 22 21 21 20 20 20 20 20 19 19 19 19 18 18 18 18 17
28 28 29 29 30 30 30 30 30 30 30 30 31 31 31 30 30 29 27 27 26 25 24 24 23 22 21 21 21 21 20 20 20 20 20 19 19 19 19 18 18 18 18 17
27 27 28 28 29 29 29 29 30 30 30 30 30 30 31 30 29 28 27 26 26 25 24 23 22 21 21 21 21 20 20 20 20 19 19 19 19 19 19 18 18 18 18 18
27 26 27 28 28 28 28 29 29 29 29 30 30 30 30 29 28 27 26 25 25 24 23 22 22 21 21 21 21 20 20 20 20 19 19 19 19 19 18 18 18 18 18 17
25 25 26 27 27 26 28 29 29 29 29 29 29 29 28 28 27 26 25 25 24 24 23 22 22 21 21 20 20 20 20 20 20 19 19 19 19 18 18 18 18 18 17 17
24 24 26 27 26 27 28 28 28 28 28 28 28 28 27 26 26 26 24 24 23 23 22 22 21 21 21 20 20 20 20 20 19 19 19 19 18 18 18 18 17 17 17 17
23 24 25 25 25 26 27 28 27 27 26 27 26 26 26 25 27 27 23 22 22 22 22 21 21 20 20 20 20 20 19 19 19 19 19 18 18 18 18 18 17 17 17 16
23 23 24 25 25 27 27 26 26 26 26 25 25 24 24 24 25 23 22 22 21 21 21 20 20 20 20 20 19 19 19 19 19 18 18 18 18 17 17 17 17 17 16 16
24 24 24 24 24 25 25 25 25 24 23 23 23 23 23 22 22 21 21 21 21 20 20 20 20 19 19 19 19 19 19 19 18 18 18 18 17 17 17 17 17 16 16 16
24 24 25 25 25 23 23 23 22 22 22 22 22 22 21 21 21 20 20 20 20 20 20 19 19 19 19 18 18 18 18 18 18 18 17 17 17 16 16 16 16 16 16 16
22 22 23 23 23 23 22 22 21 21 21 21 21 21 20 20 20 19 19 19 19 19 19 19 19 18 18 18 18 18 18 18 17 17 17 17 16 16 16 16 16 16 16 16
21 21 22 22 22 22 22 21 20 20 20 20 20 20 20 19 19 19 18 18 18 18 18 18 18 18 18 17 17 17 17 17 17 17 16 16 16 16 16 16 16 16 15 15
21 21 22 22 21 22 21 20 20 20 19 19 19 19 19 19 18 18 18 17 17 17 17 17 18 17 17 17 17 17 17 17 16 16 16 16 16 16 16 16 16 16 15 15
Wind_Speed
4 5 3 2 2 3 2 2 1 3 2 1 1 1 4 7 8 7 7 7 7 6 6 6 6 5 4 4 3 3 3 3 2 1 1 2 2 1 1 1 2 1 1 1
6 5 3 2 2 3 3 2 1 2 1 2 1 1 3 6 8 7 7 7 7 7 7 7 7 7 6 5 5 5 4 4 3 2 1 1 0 0 1 1 2 1 1 1
8 2 1 4 4 4 3 3 2 1 1 3 3 3 5 6 7 7 7 7 7 7 8 8 9 8 7 7 7 5 5 4 4 3 2 2 2 1 1 1 1 1 1 1
7 4 4 6 5 5 4 2 3 3 5 1 3 2 4 6 7 9 9 9 8 8 8 8 9 9 8 8 7 7 6 5 5 4 3 2 1 1 1 0 1 1 1 0
6 6 6 7 5 6 3 2 4 5 6 5 3 4 1 5 6 8 9 9 9 9 8 8 9 9 9 8 7 7 6 6 5 5 4 3 2 1 1 1 1 0 0 0
6 5 6 5 4 5 4 4 5 6 7 4 3 5 2 1 3 5 8 9 9 9 8 8 8 9 8 8 8 7 7 6 6 5 4 4 3 2 1 1 1 1 1 0
9 8 6 5 6 6 8 7 6 5 5 3 1 4 2 2 1 3 5 7 8 9 9 9 9 10 10 9 9 7 7 7 6 6 5 5 4 4 3 2 2 2 1 1
10 9 8 7 8 6 8 9 7 6 5 4 4 3 2 0 1 3 4 5 7 8 9 9 10 10 10 10 9 9 8 7 7 6 5 5 4 3 2 2 2 2 1 1
8 7 6 6 6 7 6 8 7 8 8 7 4 3 3 3 4 4 5 5 7 7 8 9 9 10 10 10 10 10 10 8 7 7 6 5 4 3 2 2 2 2 2 1
6 7 6 5 6 5 7 7 6 7 7 8 6 6 3 3 4 5 5 5 6 7 7 8 8 9 8 9 9 9 9 9 8 7 6 4 4 4 3 3 2 2 2 2
9 8 8 8 10 10 8 9 8 7 8 10 8 4 1 1 2 3 5 5 6 7 7 8 8 8 9 9 9 9 9 8 7 7 6 5 4 4 4 3 3 3 3 3
8 9 9 10 6 6 10 11 11 9 9 9 10 6 3 1 2 2 3 5 6 6 7 7 7 8 8 9 9 9 9 8 7 7 6 5 5 4 4 4 3 3 3 3
6 7 10 10 9 9 10 11 11 10 10 10 11 6 3 2 1 2 3 5 6 6 6 7 7 7 8 8 8 8 8 7 7 7 6 6 5 5 4 4 4 4 3 4
6 9 11 12 7 7 10 11 11 12 11 11 12 10 6 3 3 3 3 5 6 6 6 7 7 7 7 6 7 7 7 7 7 6 6 5 5 5 5 4 4 4 4 4
6 10 11 11 9 9 10 11 12 13 13 13 13 12 8 5 4 3 4 5 6 6 6 7 7 7 6 6 6 6 6 6 6 6 6 5 5 4 4 4 4 4 4 5
5 8 10 12 11 12 13 13 13 13 13 14 14 12 6 4 3 3 3 5 6 7 6 6 6 7 7 7 6 6 6 6 6 6 6 5 4 4 4 5 5 5 5 5
6 7 10 12 11 12 16 14 14 13 11 12 13 9 5 5 4 3 3 4 6 6 6 6 6 7 6 6 6 6 6 6 6 6 6 5 5 5 5 5 5 5 5 5
8 9 9 11 11 16 9 6 9 10 10 10 10 8 6 6 5 3 3 4 5 5 6 6 6 7 7 6 6 5 6 6 6 6 6 5 5 5 5 5 5 5 5 5
9 9 9 11 15 15 10 7 8 9 10 7 8 7 6 5 5 4 0 1 3 4 5 5 5 6 5 6 5 5 5 6 6 6 6 5 5 5 5 5 5 5 5 5
8 10 11 11 14 15 8 5 6 8 10 4 4 4 4 4 7 3 1 2 1 2 3 4 5 5 5 4 4 5 5 5 6 5 5 5 5 5 6 6 5 5 5 5
10 10 13 15 14 11 3 3 5 9 4 2 3 3 3 4 6 4 3 2 1 2 3 4 5 5 5 4 4 5 5 5 4 4 4 5 5 6 6 5 5 5 5 5
10 10 11 12 14 10 2 4 5 2 3 3 3 3 3 4 4 3 2 2 2 2 3 4 4 4 4 4 5 4 4 4 3 4 4 5 6 6 5 5 5 5 5 6
9 7 7 7 6 0 1 1 0 1 3 4 4 4 4 3 3 3 2 2 2 2 3 3 4 4 4 4 4 4 3 3 3 4 5 5 5 5 5 6 6 6 6 6
6 5 6 6 6 5 4 3 2 2 4 5 5 4 3 3 3 3 2 2 2 2 2 3 4 4 3 3 4 3 2 2 3 4 4 4 5 5 5 5 6 6 6 6
5 5 7 9 7 6 6 4 3 3 4 5 5 5 4 4 3 3 2 2 2 2 2 2 3 3 3 3 3 2 2 2 3 3 3 4 5 4 4 5 5 6 5 5
8 8 9 8 5 7 5 4 5 5 5 5 6 6 5 4 4 3 3 2 2 2 1 2 2 3 2 3 2 2 2 3 4 4 3 3 3 3 4 5 5 4 5 4
Wind_Direction
200 227 241 282 302 325 312 318 47 56 58 254 226 207 164 174 192 193 188 187 190 195 191 190 195 198 192 189 192 195 200 180 185 174 172 166 158 153 128 126 102 118 129 118
211 228 253 275 245 251 253 258 137 114 95 269 307 244 180 187 198 202 197 195 195 191 189 189 193 194 195 193 194 194 198 191 193 177 168 159 142 137 107 101 94 105 118 125
232 228 207 231 222 235 253 278 300 305 213 214 269 199 172 181 198 204 209 205 201 198 194 189 192 196 197 197 196 195 197 194 194 189 174 161 163 172 128 113 108 91 112 109
230 226 228 232 234 251 252 287 276 258 261 267 295 308 153 177 196 204 209 206 204 200 199 194 191 193 198 197 192 191 194 195 192 194 192 193 194 169 114 123 96 92 107 134
214 208 223 237 246 255 283 274 253 257 267 277 259 289 137 170 203 202 204 205 203 200 200 199 195 191 194 190 187 185 185 187 186 190 188 200 211 186 159 145 120 308 55 284
233 221 237 249 247 238 217 213 224 237 255 267 303 289 308 153 211 196 191 196 199 198 198 198 195 188 189 187 188 185 179 183 184 188 188 195 198 200 200 218 204 223 189 232
215 215 212 218 217 206 222 240 242 238 239 263 253 275 305 16 219 207 194 192 192 193 194 193 192 189 189 188 187 184 178 181 182 184 188 190 195 197 202 229 226 260 259 261
217 212 203 209 231 227 226 251 267 279 281 279 214 266 320 61 187 192 192 187 187 190 191 192 191 189 189 187 185 181 177 180 179 179 182 186 198 206 199 210 247 249 278 295
229 220 188 207 230 245 231 243 269 272 273 276 267 256 236 185 191 188 185 185 188 190 190 189 188 186 186 185 183 181 177 176 177 178 179 184 193 198 195 196 223 237 260 261
243 241 214 200 206 225 255 251 246 258 273 273 267 257 258 200 204 197 192 188 184 183 181 180 181 181 181 181 179 180 179 178 176 176 184 180 188 193 199 212 215 235 247 263
235 236 223 214 225 228 217 230 249 262 268 272 277 276 58 198 215 210 197 187 180 183 179 175 173 173 175 176 176 177 179 178 176 181 183 187 188 190 196 208 221 224 237 245
229 240 241 233 231 258 243 243 241 250 255 261 273 278 100 148 201 206 194 179 176 178 175 170 168 165 169 173 175 176 178 179 179 178 182 190 195 198 203 207 219 224 232 244
219 235 236 230 216 211 228 232 238 248 255 256 261 264 134 136 222 208 188 175 172 177 174 169 166 166 169 170 173 176 179 179 178 178 185 191 200 206 214 217 220 227 236 248
239 236 246 252 255 229 224 226 232 242 248 255 257 269 268 279 270 244 210 188 178 175 176 174 170 170 169 171 172 176 179 179 179 183 191 193 204 214 220 225 227 230 239 247
240 241 245 257 262 254 249 240 232 239 253 263 271 273 278 294 295 268 224 199 185 178 179 179 176 172 171 173 176 176 177 179 181 184 192 197 205 212 223 230 236 235 241 247
249 248 245 246 245 247 249 248 244 244 253 259 266 270 284 295 292 270 225 204 195 190 187 182 178 176 176 177 176 175 178 181 183 188 193 194 203 213 222 231 234 236 242 251
233 239 245 246 241 246 245 243 243 244 250 259 262 273 284 285 287 272 235 214 207 199 190 186 184 183 182 178 175 180 180 179 182 188 192 195 204 213 220 231 230 236 242 247
236 242 244 249 242 244 249 245 248 249 254 263 270 273 274 279 278 259 251 235 220 208 200 195 192 188 184 177 174 178 181 185 190 195 198 202 210 215 220 229 235 240 245 249
227 229 240 244 243 246 236 233 244 249 253 267 268 269 281 294 269 229 290 261 241 220 211 201 193 186 178 176 176 181 191 197 204 207 208 208 215 222 227 231 238 245 246 249
205 220 235 238 247 248 239 219 239 249 243 274 279 280 284 277 263 256 356 307 280 228 204 192 183 179 172 173 180 193 202 206 213 216 216 214 218 226 232 235 239 244 248 251
202 212 227 237 245 250 247 209 209 234 254 353 308 295 280 279 301 316 305 288 243 214 191 185 181 178 174 173 180 199 209 213 217 217 217 220 223 230 232 232 235 239 244 252
223 222 224 233 242 240 172 201 223 282 359 342 322 307 300 313 334 326 303 278 241 204 186 182 180 178 173 175 182 196 210 214 212 217 222 223 228 239 233 229 235 237 242 244
234 245 241 240 246 316 212 208 315 313 307 320 321 319 318 319 326 327 311 282 256 228 198 188 183 180 181 185 186 196 205 208 211 221 230 232 231 233 235 233 234 238 238 250
224 245 246 245 238 242 240 242 256 278 292 301 303 305 303 300 305 313 309 300 278 246 208 201 193 184 185 191 194 191 195 211 218 231 234 230 232 233 232 238 241 249 254 260
248 236 239 243 248 250 236 242 265 288 295 295 293 289 287 286 281 282 277 288 289 268 238 210 204 197 193 192 201 199 189 203 222 234 245 246 243 241 243 246 256 256 261 264
237 242 248 254 252 263 258 269 272 276 284 289 290 286 282 277 273 270 266 265 269 271 276 237 218 212 204 199 198 206 203 214 227 231 243 261 266 261 259 258 264 256 247 233
Height
1511 1508 1507 1504 1503 1504 1504 1505 1507 1505 1504 1505 1506 1506 1507 1512 1514 1516 1518 1521 1523 1526 1527 1528 1529 1530 1530 1530 1530 1530 1531 1531 1531 1531 1532 1532 1533 1532 1532 1532 1531 1531 1531 1531
1508 1508 1505 1504 1504 1504 1504 1506 1506 1505 1504 1504 1504 1504 1503 1507 1511 1513 1515 1518 1521 1523 1525 1527 1528 1528 1529 1529 1529 1530 1530 1531 1531 1531 1532 1532 1533 1533 1533 1532 1531 1531 1531 1531
1506 1503 1504 1505 1505 1506 1504 1504 1505 1506 1504 1502 1503 1504 1503 1505 1509 1512 1514 1516 1518 1520 1522 1524 1525 1526 1527 1528 1528 1529 1529 1530 1531 1531 1532 1532 1532 1533 1533 1533 1532 1532 1532 1532
1503 1503 1505 1504 1504 1504 1506 1501 1503 1504 1505 1503 1504 1510 1501 1500 1504 1507 1510 1512 1515 1517 1519 1521 1523 1524 1525 1526 1527 1528 1528 1529 1530 1530 1532 1532 1533 1533 1533 1533 1532 1532 1532 1532
1502 1502 1504 1505 1502 1502 1503 1501 1502 1502 1503 1504 1501 1506 1500 1497 1501 1501 1505 1508 1511 1514 1517 1519 1520 1522 1524 1525 1526 1527 1527 1528 1529 1530 1530 1531 1532 1533 1533 1533 1532 1532 1532 1532
1498 1500 1501 1500 1501 1501 1502 1503 1502 1500 1499 1513 1505 1507 1505 1493 1496 1496 1500 1505 1508 1511 1514 1516 1518 1520 1522 1523 1525 1526 1526 1527 1528 1529 1529 1530 1531 1531 1532 1532 1532 1532 1532 1531
1501 1499 1499 1500 1501 1501 1501 1505 1513 1516 1514 1512 1501 1505 1502 1491 1492 1495 1497 1501 1505 1509 1511 1514 1516 1518 1519 1521 1523 1524 1525 1526 1527 1528 1529 1529 1529 1530 1530 1531 1532 1532 1532 1531
1504 1504 1496 1497 1498 1499 1499 1500 1516 1525 1519 1507 1500 1504 1494 1490 1493 1496 1498 1500 1504 1506 1509 1511 1513 1515 1517 1519 1521 1522 1523 1524 1525 1526 1527 1528 1529 1530 1530 1530 1531 1531 1531 1531
1498 1500 1493 1495 1496 1496 1499 1498 1493 1502 1506 1511 1501 1496 1490 1489 1492 1495 1497 1499 1502 1504 1507 1509 1511 1513 1515 1517 1519 1520 1521 1522 1524 1525 1526 1527 1528 1528 1529 1529 1529 1530 1529 1530
1492 1501 1495 1495 1496 1497 1494 1492 1497 1504 1520 1519 1506 1500 1494 1490 1490 1491 1494 1497 1500 1502 1505 1507 1509 1511 1513 1515 1517 1518 1520 1521 1523 1524 1525 1526 1526 1527 1527 1528 1528 1528 1528 1528
1491 1499 1497 1495 1496 1494 1497 1497 1497 1498 1502 1512 1514 1501 1481 1486 1488 1489 1492 1495 1498 1500 1503 1505 1507 1509 1511 1513 1515 1516 1518 1519 1521 1522 1523 1525 1525 1526 1526 1526 1526 1526 1526 1526
1492 1492 1497 1493 1489 1490 1490 1491 1494 1504 1507 1503 1505 1498 1480 1484 1486 1489 1491 1495 1497 1499 1501 1503 1506 1508 1510 1511 1513 1515 1516 1518 1519 1521 1522 1523 1524 1524 1524 1524 1524 1524 1524 1524
1493 1495 1504 1501 1497 1493 1491 1489 1489 1490 1495 1499 1503 1496 1480 1484 1487 1489 1491 1494 1496 1498 1500 1502 1504 1506 1508 1509 1511 1513 1514 1516 1517 1519 1520 1521 1521 1522 1522 1522 1522 1522 1522 1522
1495 1493 1497 1500 1491 1485 1490 1490 1489 1491 1495 1495 1493 1488 1481 1483 1486 1489 1491 1493 1495 1498 1499 1501 1503 1504 1506 1508 1509 1511 1512 1514 1515 1516 1518 1519 1519 1519 1520 1520 1520 1519 1519 1519
1493 1492 1490 1487 1485 1484 1486 1487 1487 1489 1487 1490 1485 1483 1481 1482 1486 1488 1491 1493 1494 1496 1498 1499 1501 1503 1504 1506 1507 1509 1510 1511 1513 1514 1515 1516 1516 1517 1517 1517 1517 1517 1517 1517
1493 1493 1491 1491 1486 1485 1487 1484 1484 1485 1484 1484 1483 1482 1480 1483 1486 1488 1490 1492 1493 1495 1496 1498 1499 1501 1502 1503 1505 1506 1508 1509 1510 1511 1512 1513 1514 1514 1514 1515 1515 1515 1514 1514
1492 1494 1495 1491 1486 1487 1490 1482 1481 1481 1480 1481 1482 1481 1481 1483 1485 1487 1489 1490 1491 1493 1494 1496 1497 1498 1500 1501 1502 1504 1505 1507 1508 1508 1509 1510 1511 1511 1512 1512 1512 1511 1511 1511
1496 1496 1493 1489 1492 1503 1482 1476 1477 1479 1479 1479 1479 1479 1482 1483 1484 1486 1488 1489 1490 1491 1492 1494 1495 1496 1498 1499 1500 1501 1503 1504 1505 1506 1507 1507 1508 1508 1508 1509 1508 1508 1507 1507
1493 1494 1492 1489 1491 1486 1479 1477 1478 1480 1480 1479 1479 1480 1482 1483 1483 1483 1486 1487 1488 1489 1490 1491 1493 1494 1496 1497 1498 1499 1500 1502 1503 1504 1504 1504 1505 1505 1505 1505 1505 1505 1504 1503
1491 1492 1491 1490 1493 1490 1477 1475 1478 1481 1483 1481 1481 1482 1483 1483 1480 1479 1484 1486 1486 1487 1488 1490 1491 1492 1493 1494 1495 1496 1497 1498 1499 1500 1501 1501 1501 1502 1502 1501 1501 1501 1500 1500
1488 1491 1489 1487 1488 1476 1474 1476 1479 1487 1483 1483 1482 1483 1484 1483 1483 1484 1484 1484 1485 1485 1486 1487 1489 1490 1491 1491 1492 1493 1494 1495 1496 1496 1497 1497 1497 1497 1498 1498 1497 1497 1496 1496
1481 1482 1485 1484 1487 1481 1476 1477 1479 1482 1483 1483 1483 1484 1484 1484 1483 1483 1482 1483 1483 1484 1484 1485 1486 1487 1488 1488 1489 1490 1490 1491 1492 1492 1493 1493 1493 1494 1494 1494 1493 1493 1493 1493
1477 1476 1473 1477 1479 1479 1478 1479 1482 1483 1484 1484 1483 1484 1484 1483 1482 1482 1481 1481 1481 1482 1482 1483 1484 1485 1485 1486 1486 1487 1487 1487 1488 1488 1489 1489 1489 1489 1490 1490 1490 1489 1489 1489
1478 1480 1478 1478 1476 1478 1480 1481 1482 1483 1483 1483 1483 1483 1483 1482 1481 1481 1480 1480 1480 1480 1481 1481 1482 1483 1483 1484 1484 1484 1484 1484 1484 1484 1484 1484 1485 1485 1486 1486 1486 1486 1486 1485
1478 1479 1477 1477 1477 1478 1479 1480 1481 1481 1481 1481 1481 1481 1481 1481 1480 1480 1479 1479 1479 1478 1479 1480 1480 1480 1481 1481 1481 1481 1480 1480 1481 1482 1481 1481 1481 1482 1481 1481 1482 1482 1481 1481
1477 1477 1476 1473 1476 1476 1477 1479 1479 1479 1479 1479 1479 1479 1479 1479 1478 1478 1478 1477 1477 1477 1477 1477 1478 1478 1478 1479 1479 1479 1478 1478 1478 1479 1478 1478 1478 1478 1477 1477 1476 1475 1475 1475